Torna al catalogo

KUIPER-00505

AttivoComunicazioniLEO
NORAD 68886·PAYLOAD·🇺🇸 United States

Lanciato Apr 28, 2026 da Cape Canaveral Space Force Station

Loading…

Prossimi Passaggi (prossime 24 ore)

TLE

AggiornatoSource: CelesTrak SupGP

Epoca: Sep 14, 2026, 22:15 UTC

1 68886C 26095Y   26257.92754630 -.00001906  00000+0 -24949-3 0  2571
2 68886  51.9007 208.8370 0000640  84.9111 146.4164 14.79931303    19

Traccia KUIPER-00505 in tempo reale con AllMySat

Download on the App Store